Location: Holmbach
(49.5093°N, 8.8411°E)
Time: 17:47:37
(UTC+00:00)

Cosmos 1892 - Pass Details

Date: 17 June 2025
Orbit: 364 x 371 km, 82.5° (Epoch: 13 July)

Event Time Altitude Azimuth Distance (km) Brightness Sun altitude
Exits shadow 21:15:23 16° 116° (ESE) 1,099 3.9 -11.5°
Maximum altitude 21:16:25 19° 90° (E) 999 3.9 -11.6°
Drops below altitude 10° 21:18:36 10° 43° (NE) 1,396 5.1 -11.8°
Sets 21:20:58 0° 24° (NNE) 2,249 6.5 -12.0°
